sat.trackr.live / text

‹ back to catalog

GRUS-1D

NORAD 47936 · 2021-022E

PAYLOAD ACTIVE UNKNOWN

§ Identity

Operator
Country
JPN
Launch date
2021-03-22
Launch site
TYMSC
Launch vehicle
Mass (kg)
RCS (m²)

External: N2YO · Heavens-Above · Gunter

§ Orbital elements

Epoch: 2026-09-20T22:30:00.522720Z

Period
96.07 min
Inclination
97.5208°
Eccentricity
0.0010956
Mean motion
14.98865642 rev/d
Perigee alt
562.8 km
Apogee alt
578.0 km
Semi-major
6,948.5 km
B*
5.9485e-5
RAAN
144.0846°
Arg perigee
349.4105°
Mean anomaly
10.6886°
Rev number
30,024

§ Raw data

GRUS-1D1 47936U 21022E   26263.93750605  .00000662  00000+0  59485-4 0  99982 47936  97.5208 144.0846 0010956 349.4105  10.6886 14.98865642300247

JSON: /api/v1/satellites/47936 · /tle

For live sub-satellite position, see the globe view (requires WebGL).

§ Visibility from observer

Set your observer location to see the next 7 days of passes ≥ 10°. The values pass through the URL so the page stays shareable.

No JS? Fill the form by hand. The geolocation button needs JavaScript.

§ Radio — SatNOGS DB

ModeDescriptionDownlinkUplink
FM S-band telemetry 2.276 GHz

1 transmitter · refreshed weekly from db.satnogs.org